Regional Weather Roundup
Issued by NWS

Home | Current Version | Previous Version | Text Only | Print | Product List | Glossary Off
Versions: 1 2 3 4 5 6 7 8 9 10 11 12 13 14 15 16 17 18 19 20 21 22 23 24 25 26 27 28 29 30 31 32 33 34 35 36 37 38 39 40 41 42 43 44 45 46 47 48 49 50

000
ASUS45 KTFX 311319
RWRMT
MONTANA HOURLY WEATHER ROUNDUP
NATIONAL WEATHER SERVICE GREAT FALLS MT
619 AM MST SAT JAN 31 2015

NOTE: "FAIR" INDICATES FEW OR NO CLOUDS BELOW 12000 FEET WITH NO
SIGNIFICANT WEATHER AND/OR OBSTRUCTIONS TO VISIBILITY.

* THESE STATIONS ARE NOT UNDER NWS QUALITY CONTROL. THEY DO NOT
   REPORT WEATHER SUCH AS PRECIPITATION OR FOG.

MTZ001>007-043-311400-
WEST OF THE DIVIDE
CITY           SKY/WX    TMP DP  RH WIND       PRES   REMARKS
KALISPELL      FOG       25  23  92 CALM      30.11F VSB 1 1/4
MISSOULA       FOG       25  21  85 NE3       30.13F
BUTTE          MOCLDY    16  10  77 CALM      30.04S
MULLAN PASS    FOG       19  18  96 N5        30.06S VSB 1    WCI  12
* ANACONDA     CLOUDY    19  16  88 N6         N/A   WCI  11
* ESSEX        N/A       22  19  88 W1         N/A
* EUREKA APT   PTCLDY    28  25  89 N5        30.12F WCI  22
* HAMILTON APT MOCLDY    23  21  92 S6        30.11S WCI  16
* LIBBY APT    PTCLDY    27  23  85 CALM      30.17R
* LINCOLN      N/A       15  12  88 NW3        N/A
* LOOKOUT PASS N/A       23  23 100 N4G9       N/A
* POLSON       N/A       23  22  96 N/A        N/A
* RONAN APT    MOCLDY    23  21  92 N/A        N/A
* SEELEY LAKE  N/A       12   9  88 SE2G7      N/A
* THOMP F APT  MOCLDY    23   8  52 NE3        N/A
$$

MTZ008-052>055-311400-
SOUTHWEST MONTANA
CITY           SKY/WX    TMP DP  RH WIND       PRES   REMARKS
BOZEMAN        PTCLDY    19  16  88 E3        30.03S
DILLON         MOCLDY    21  12  68 SW12      30.01F WCI   9
* W YELLOWSTON PTCLDY    -3  -8  79 N/A        N/A
* THREE FORKS  MOCLDY    19  19 100 N/A        N/A
* BOULDER HILL N/A       29  12  49 N1G8       N/A
* MONIDA PASS  N/A        6   3  87 N/A        N/A
* RAYNOLDS PAS N/A       11 -33  11 N1         N/A
* WHITEHALL    N/A       21  17  84 W5G10      N/A   WCI  14
* WISE RIVER   N/A       10   5  80 W5G10      N/A   WCI   1
$$

MTZ009>010-012-014-046-048-049-054-311400-
EAST SLOPES AND CENTRAL MONTANA
CITY           SKY/WX    TMP DP  RH WIND       PRES   REMARKS
CUT BANK       LGT SNOW  21  19  92 N22       30.09R VSB 2 1/2 WCI   5
GREAT FALLS    CLOUDY    27  25  92 NW14      30.06R WCI  16
HELENA         CLOUDY    28  23  81 NE7       30.03F WCI  21
MALMSTROM AFB  CLOUDY    27  27 100 NW8       30.08R WCI  19
* CONRAD       MOCLDY    27  25  92 NW12G18    N/A   WCI  16
* DEARBORN     N/A       30  22  72 VRB12G17    N/A   WCI  20
* EAST GLACIER N/A       23  21  92 NE17       N/A   WCI   9
* MONARCH      N/A       24  17  75 NW9G14     N/A   WCI  14
* PENDROY      N/A       23  23 100 N17G22     N/A   WCI   9
* ROGERS PASS  N/A       27  16  63 S7G14      N/A   WCI  19
* SWEET GRASS  N/A       19  19 100 VRB16G22    N/A   WCI   4
* WHITE SULPH  N/A       23  18  81 SE5        N/A   WCI  16
$$

MTZ011-013-016-021-035-040-045-047-050-051-311400-
NORTH CENTRAL MONTANA
CITY           SKY/WX    TMP DP  RH WIND       PRES   REMARKS
HAVRE          LGT SNOW  25  23  92 NE21      30.07R VSB 2 1/2 WCI  10
LEWISTOWN      CLOUDY    28  19  69 NW10      29.96R WCI  19
* N BAR RANCH  CLEAR     36  14  40 W13G21    29.92F WCI  27
* CHINOOK      CLOUDY    25  23  92 NE13      30.09R VSB 2 1/2 WCI  13
* CHESTER      N/A       25  22  88 NE7        N/A   WCI  17
* DENTON       N/A       28  26  92 NW10G18    N/A   WCI  19
* GEYSER       N/A       25  24  96 W19G26     N/A   WCI  11
* JUDITH GAP   N/A       30  18  61 NW12       N/A   WCI  20
* LOMA         N/A       28  26  92 W8         N/A   WCI  20
$$

MTZ017>020-022>027-061-062-311400-
NORTHEAST MONTANA
CITY           SKY/WX    TMP DP  RH WIND       PRES   REMARKS
GLASGOW        FOG       21  19  92 E24G35    30.08S WCI   4
GLENDIVE       CLOUDY    25  21  85 E17       30.08R VSB 1 3/4 WCI  12
JORDAN         MOCLDY    27  27 100 E13       29.99R WCI  16
SIDNEY         CLOUDY    25  21  85 NE10      30.18R WCI  15
WOLF POINT     CLOUDY    25  21  85 E20G25    30.14S WCI  11
* BEAVER HILL  N/A       22  21  96 E17G22     N/A   WCI   8
* CIRCLE       N/A       24  23  96 NE16G22    N/A   WCI  11
* LINDSAY DVD  N/A       23  21  92 E16        N/A   WCI  10
* NAVAJO       N/A       15  13  92 E13G19     N/A   WCI   1
* PLENTYWOOD A CLOUDY    14  10  84 NE21      30.20R WCI  -4
* POPLAR APT   MOCLDY    23  21  92 N/A       30.15S
* SACO         N/A       23  20  88 NE18G27    N/A   WCI   9
* SCOBEY APT   CLOUDY    16  10  77 NE14       N/A   WCI   2
$$

MTZ028>042-056>058-311400-
SOUTHCENTRAL AND SOUTHEAST MONTANA
CITY           SKY/WX    TMP DP  RH WIND       PRES   REMARKS
BAKER          FOG       27  25  92 E17       30.02S VSB 1 3/4 WCI  14
BILLINGS       MOCLDY    28  21  75 SW14      29.93S WCI  17
LIVINGSTON     PTCLDY    28  16  61 NW20      29.99R WCI  15
MILES CITY     PTCLDY    21  19  92 NE14      29.97F WCI   8
* BIG TIMBER A PTCLDY    34  14  44 W21       29.96R WCI  22
* FORSYTH APT  PTCLDY    23  21  92 CALM      29.95F
* LAUREL APT   MOCLDY    25  10  53 SW7        N/A   WCI  17
* ROUNDUP APT  MOCLDY    27  16  63 N/A        N/A
* ALZADA       N/A       24  21  88 E1         N/A
* HYSHAM       N/A       32  24  72 W6         N/A   WCI  26
* LAME DEER    N/A       33  18  54 S6         N/A   WCI  27
* REED POINT   N/A       18  17  96 SE2        N/A
* ROSCOE HILL  N/A       27   0  31 N5G12      N/A   WCI  21
$$

REGIONAL REPORTS...DAKOTAS
CITY           SKY/WX    TMP DP  RH WIND       PRES   REMARKS
WILLISTON      CLOUDY    19  16  88 E17       30.21R WCI   4
DICKINSON      FOG       21  18  88 E16       30.10R VSB 1 1/4 WCI   7
BEACH          FOG       21  21 100 E15G23    30.09R VSB 3/4  WCI   7
CROSBY         LGT SNOW   9   7  91 E15G24    30.29R WCI  -8
TIOGA          CLOUDY     9   9 100 E21       30.26R WCI -11
WATFORD CITY   CLOUDY    19  18  96 E16G22    30.16R WCI   4
BISMARCK       CLOUDY    19  18  96 E16       30.23R WCI   4
GRAND FORKS    CLOUDY     7  -2  66 N15       30.39R WCI -10
FARGO          CLOUDY    12   5  73 N22       30.31R WCI  -7
BUFFALO SD     MOCLDY    25  21  85 E15       29.95F WCI  13
RAPID CITY     CLOUDY    28  21  75 CALM      30.02R
$$

REGIONAL REPORTS...WYOMING/IDAHO/WASHINGTON
CITY           SKY/WX    TMP DP  RH WIND       PRES   REMARKS
GILLETTE       MOCLDY    30  21  69 S8        29.91F WCI  22
SHERIDAN       CLOUDY    27  19  72 W5        29.92F WCI  21
CODY           PTCLDY    23  14  68 S5        29.92F WCI  16
YELLOWSTONE LA MOCLDY   -11 -18  70 CALM      30.03F
SALMON         CLOUDY    27  19  72 CALM      30.20S
MULLAN PASS    FOG       19  18  96 N5        30.06S VSB 1    WCI  12
SAND POINT     CLOUDY    32  28  85 S6        30.22S WCI  26
SPOKANE        LGT SNOW  30  28  92 SW6       30.24R WCI  24
$$

REGIONAL REPORTS...ALBERTA
CITY           SKY/WX    TMP DP  RH WIND       PRES   REMARKS
CALGARY        LGT SNOW   9   3  76 N20       30.32R VSB 1 1/2 WCI -10
LETHBRIDGE     LGT SNOW  16  14  92 N8        30.24R VSB 1    WCI   5
MEDICINE HAT   LGT SNOW  16  14  92 NE10G22   30.25R VSB 3/4  WCI   4
EDMONTON       LGT SNOW   3  -2  79 N7        30.49S VSB 2    WCI  -9
WATERTON GATE  N/A       16  14  92 NE15G22    N/A   WCI   1
CARDSTON       N/A       16  16 100 N12G18     N/A   WCI   3
MILK RIVER     N/A       18  16  92 N18G25     N/A   WCI   2
$$

REGIONAL REPORTS...SASKATCHEWAN
CITY           SKY/WX    TMP DP  RH WIND       PRES   REMARKS
SWIFT CURRENT  LGT SNOW   7   3  83 E22G30    30.24R WCI -14
REGINA         MOCLDY     7   0  73 NE15      30.36R WCI -10
VAL MARIE      N/A       16  14  92 NE22G29    N/A   WCI  -2
ASSINIBOIA     N/A        9   5  84 E22        N/A   WCI -11
CORONACH       N/A       12  10  92 NE13G20    N/A   WCI  -3

$$



USA.gov is the U.S. government's official web portal to all federal, state and local government web resources and services.